This is the latest recevied weather packets stored in our database for station/object KD0MAC. If no packets are shown the sender has not sent any weather packets the latest 10 day(s).
| Time | Temp. | Humidity | Pressure | Rain* | Wind** | Luminosity | Snow |
|---|---|---|---|---|---|---|---|
| 1788645535 | 37.22° C | 35% | 1012.5 hPa | 0 mm | - | 337 W/m² | - |
| 1788645275 | 37.22° C | 35% | 1012.2 hPa | 0 mm | - | 350 W/m² | - |
| 1788644976 | 37.22° C | 35% | 1012.2 hPa | 0 mm | - | 358 W/m² | - |
| 1788644675 | 37.22° C | 37% | 1012.2 hPa | 0 mm | - | 348 W/m² | - |
| 1788644376 | 37.22° C | 36% | 1012.5 hPa | 0 mm | - | 357 W/m² | - |
| 1788644334 | 37.22° C | 36% | 1012.5 hPa | 0 mm | - | 357 W/m² | - |
| 1788644035 | 37.22° C | 35% | 1012.5 hPa | 0 mm | - | 364 W/m² | - |
| 1788643734 | 37.22° C | 37% | 1012.5 hPa | 0 mm | - | 385 W/m² | - |
| 1788643475 | 37.22° C | 36% | 1012.5 hPa | 0 mm | - | 387 W/m² | - |
| 1788643434 | 37.22° C | 36% | 1012.5 hPa | 0 mm | - | 387 W/m² | - |
| 1788643175 | 37.22° C | 36% | 1012.5 hPa | 0 mm | - | 412 W/m² | - |
| 1788643134 | 37.22° C | 36% | 1012.5 hPa | 0 mm | - | 412 W/m² | - |
| 1788642835 | 37.78° C | 34% | 1012.9 hPa | 0 mm | - | 423 W/m² | - |
| 1788642534 | 37.78° C | 34% | 1012.9 hPa | 0 mm | - | 422 W/m² | - |
| 1788642276 | 37.78° C | 35% | 1012.9 hPa | 0 mm | - | 431 W/m² | - |
| 1788642234 | 37.78° C | 35% | 1012.9 hPa | 0 mm | - | 431 W/m² | - |
| 1788641975 | 37.78° C | 33% | 1012.9 hPa | 0 mm | - | 435 W/m² | - |
| 1788641675 | 37.78° C | 35% | 1012.9 hPa | 0 mm | - | 454 W/m² | - |
| 1788641375 | 37.78° C | 32% | 1012.9 hPa | 0 mm | - | 465 W/m² | - |
| 1788641075 | 37.22° C | 31% | 1013.2 hPa | 0 mm | - | 465 W/m² | - |
| 1788641035 | 37.22° C | 31% | 1013.2 hPa | 0 mm | - | 465 W/m² | - |
| 1788640775 | 38.33° C | 30% | 1013.2 hPa | 0 mm | - | 480 W/m² | - |
| 1788640735 | 38.33° C | 30% | 1013.2 hPa | 0 mm | - | 480 W/m² | - |
| 1788640434 | 37.78° C | 30% | 1013.2 hPa | 0 mm | - | 490 W/m² | - |
| 1788640134 | 38.33° C | 32% | 1013.2 hPa | 0 mm | - | 506 W/m² | - |
* Rain latest hour (hover to see other rain measurements)
** Current wind speed in m/s (hover to see current wind gust speed)